Location: Unspecified
(45.0173°N, 35.2345°E)
Time: 07:04:26
(UTC+02:00)

Tiangong - Visible Passes

Search period start: 24 January 2026 00:00
Search period end: 03 February 2026 00:00
Orbit: 378 x 392 km, 41.5° (Epoch: 23 January)

Date Brightness Start Highest point End Pass type
(mag) Time Alt. Az. Time Alt. Az. Time Alt. Az.
24 Jan 0.5 04:37:45 21° ESE 04:37:45 21° ESE 04:39:02 10° ESE visible
24 Jan -1.1 06:09:58 12° WSW 06:12:37 38° S 06:15:37 10° ESE visible
25 Jan -1.3 05:13:10 42° S 05:13:10 42° S 05:16:07 10° ESE visible
26 Jan 1.4 04:16:18 11° ESE 04:16:18 11° ESE 04:16:30 10° ESE visible
26 Jan -0.8 05:48:31 20° WSW 05:50:00 30° SSW 05:52:51 10° SE visible
27 Jan -0.2 04:51:37 26° SE 04:51:37 26° SE 04:53:21 10° ESE visible
27 Jan 0.1 06:24:44 10° WSW 06:26:44 16° SSW 06:28:45 10° SSE visible
28 Jan -0.5 05:26:54 22° SSW 05:27:09 22° SSW 05:29:42 10° SSE visible
29 Jan 1.0 04:29:58 12° SE 04:29:58 12° SE 04:30:17 10° SE visible
29 Jan 0.5 06:03:32 10° SSW 06:03:40 10° SSW 06:03:50 10° SSW visible
30 Jan 0.5 05:05:16 13° S 05:05:16 13° S 05:06:01 10° SSE visible
